Flag for Norway Weather past 2 weeks in Mjøndalen, Norway

Now
39 °F

Passing clouds.


Feels Like: 31 °F
Forecast: -2 / 9 °F
Wind: 15 mph from North

Location: Oslo / Fornebu

Current Time: Dec 27, 2014 at 2:07:11 AM

Latest Report: Dec 27, 2014 at 1:20 AM


Visibility: N/A

Pressure: 29.89 "Hg

Humidity: 56%

Dew point: 25 °F

Location of MjøndalenLocation

Historic Weather in Mjøndalen — Graph

°F

Mjøndalen temperature yesterday

Maximum temperature yesterday: 41 °F (at 12:50 AM)
Minimum temperature yesterday: 37 °F (at 4:20 AM)
Average temperature yesterday: 39 °F

Past Weeks' High & Low Weather Summary

 TemperatureHumidityPressure
High48 °F (Dec 14, 9:20 AM)100% (Dec 15, 9:20 PM)30.21 "Hg (Dec 15, 9:20 PM)
Low32 °F (Dec 15, 9:20 PM)41% (Dec 15, 11:20 AM)28.77 "Hg (Dec 12, 12:20 AM)
Average41 °F72%29.31 "Hg
* Reported Dec 12 12:20 AM — Dec 27 12:50 AM, Mjøndalen, Weather by CustomWeather, © 2014

Note: Actual official high and low records may vary slightly from our data, if they occured in-between our weather recording intervals... More about our weather records

Advertising

Mjøndalen weather history for previous 24 hours

 ConditionsComfort  
Time TempWeatherWind HumidityBarometerVisibility
12:50 AM
Dec 27
39 °FPassing clouds.14 mph56%29.89 "HgN/A
12:20 AM39 °FPassing clouds.13 mph56%29.92 "HgN/A
11:50 PM
Dec 26
39 °FPassing clouds.14 mph61%29.92 "HgN/A
11:20 PM39 °FPassing clouds.14 mph56%29.92 "HgN/A
10:50 PM39 °FChilly.12 mph56%29.92 "HgN/A
10:20 PM39 °FChilly.9 mph48%29.95 "HgN/A
9:50 PM39 °FChilly.9 mph52%29.95 "HgN/A
9:20 PM39 °FPassing clouds.10 mph52%29.95 "HgN/A
8:50 PM39 °FChilly.6 mph52%29.98 "HgN/A
8:20 PM39 °FPassing clouds.6 mph52%29.98 "HgN/A
7:50 PM39 °FPassing clouds.7 mph56%29.98 "HgN/A
7:20 PM39 °FPassing clouds.2 mph61%29.98 "HgN/A
6:50 PM39 °FPassing clouds.5 mph61%30.01 "HgN/A
6:20 PM39 °FPassing clouds.3 mph56%30.01 "HgN/A
5:50 PM39 °FChilly.3 mph56%30.01 "HgN/A
5:20 PM39 °FChilly.3 mph56%30.04 "HgN/A
4:50 PM39 °FChilly.2 mph52%30.04 "HgN/A
4:20 PM37 °FChilly.3 mph52%30.04 "HgN/A
3:50 PM37 °FChilly.6 mph52%30.04 "HgN/A
3:20 PM41 °FQuite cool.8 mph42%30.04 "HgN/A
2:50 PM39 °FPassing clouds.9 mph52%30.04 "HgN/A
2:20 PM39 °FPassing clouds.13 mph61%30.04 "HgN/A
1:50 PM39 °FPartly sunny.12 mph56%30.04 "HgN/A
1:20 PM39 °FScattered clouds.14 mph65%30.07 "HgN/A
12:50 PM39 °FChilly.15 mph70%30.07 "HgN/A
12:20 PM39 °FPartly sunny.18 mph70%30.07 "HgN/A
11:50 AM37 °FSprinkles. Partly sunny.18 mph87%30.07 "HgN/A
11:20 AM39 °FPartly sunny.18 mph81%30.07 "HgN/A
10:50 AM37 °FScattered clouds.22 mph87%30.07 "HgN/A
10:20 AM39 °FPartly sunny.21 mph81%30.07 "HgN/A
9:50 AM39 °FScattered clouds.15 mph81%30.07 "HgN/A
9:20 AM39 °FPassing clouds.16 mph81%30.07 "HgN/A
8:50 AM41 °FPassing clouds.20 mph70%30.04 "HgN/A
8:20 AM39 °FPassing clouds.20 mph70%30.07 "HgN/A
7:50 AM39 °FSprinkles. Passing clouds.21 mph75%30.07 "HgN/A
7:20 AM39 °FPassing clouds.16 mph81%30.07 "HgN/A
6:50 AM39 °FPassing clouds.23 mph87%30.07 "HgN/A
6:20 AM37 °FPassing clouds.16 mph87%30.07 "HgN/A
5:50 AM37 °FSprinkles. Passing clouds.23 mph93%30.09 "HgN/A
5:20 AM37 °FSprinkles. Passing clouds.20 mph87%30.09 "HgN/A
4:50 AM37 °FPassing clouds.26 mph87%30.09 "HgN/A
4:20 AM37 °FLight rain. Passing clouds.35 mph87%30.09 "HgN/A
3:20 AM41 °FPassing clouds.31 mph76%30.12 "HgN/A
2:50 AM41 °FPassing clouds.21 mph57%30.15 "HgN/A
2:20 AM41 °FPassing clouds.18 mph61%30.15 "HgN/A
Weather by CustomWeather, © 2014

See weather overviewHow to use our weather pages